Time,TemperatureF,DewpointF,PressureIn,WindDirection,WindDirectionDegrees,WindSpeedMPH,WindSpeedGustMPH,Humidity,HourlyPrecipIn,Conditions,Clouds,dailyrainin,SoftwareType,DateUTC
2013-03-11 00:08:00,40.9,37.9,30.40,WSW,243,0.0,0.0,89,0.00,,OVC013,-99.99,VWS V12.07,2013-03-11 07:08:00,
2013-03-11 01:07:00,40.9,38.2,30.39,WSW,243,0.0,2.0,90,0.00,,OVC034,-99.99,VWS V12.07,2013-03-11 08:07:00,
2013-03-11 02:08:00,40.9,38.2,30.40,WSW,243,0.0,2.0,90,0.00,,OVC034,-99.99,VWS V12.07,2013-03-11 09:08:00,
2013-03-11 03:08:00,40.2,37.5,30.40,WSW,243,0.0,0.0,90,0.00,,OVC013,-99.99,VWS V12.07,2013-03-11 10:08:00,
2013-03-11 04:08:00,40.2,37.5,30.40,WSW,243,0.0,0.0,90,0.00,,OVC015,-99.99,VWS V12.07,2013-03-11 11:08:00,
2013-03-11 05:08:00,39.2,36.8,30.38,ENE,59,1.0,3.0,91,0.00,,OVC013,-99.99,VWS V12.07,2013-03-11 12:08:00,
2013-03-11 06:08:00,38.0,35.6,30.39,ENE,59,0.0,2.0,91,0.00, BR,,-99.99,VWS V12.07,2013-03-11 13:08:00,
2013-03-11 07:08:00,36.8,34.4,30.39,ENE,59,0.0,0.0,91,0.00, BR,,-99.99,VWS V12.07,2013-03-11 14:08:00,
2013-03-11 08:08:00,36.6,34.5,30.39,NE,52,2.0,4.0,92,0.00, BR,,-99.99,VWS V12.07,2013-03-11 15:08:00,
2013-03-11 09:08:00,39.3,35.2,30.37,NE,44,3.0,3.0,85,0.00, BR,,-99.99,VWS V12.07,2013-03-11 16:08:00,
2013-03-11 10:08:00,43.2,35.8,30.36,ENE,68,2.0,5.0,75,0.00,,OVC035,-99.99,VWS V12.07,2013-03-11 17:08:00,
2013-03-11 11:08:00,46.2,35.9,30.35,ENE,65,1.0,3.0,67,0.00,,SCT040,-99.99,VWS V12.07,2013-03-11 18:08:00,
2013-03-11 12:08:00,49.9,34.8,30.32,SW,215,0.0,3.0,56,0.00,,FEW037,-99.99,VWS V12.07,2013-03-11 19:08:00,
2013-03-11 13:08:00,49.6,35.0,30.31,SE,131,0.0,3.0,57,0.00,,OVC037,-99.99,VWS V12.07,2013-03-11 20:08:00,
2013-03-11 14:08:00,52.3,34.7,30.27,South,191,1.0,7.0,51,0.00,,OVC037,-99.99,VWS V12.07,2013-03-11 21:08:00,
2013-03-11 15:08:00,52.5,37.3,30.25,WSW,256,0.0,2.0,56,0.00,,OVC033,-99.99,VWS V12.07,2013-03-11 22:08:00,
2013-03-11 16:08:00,50.5,38.4,30.24,WSW,237,0.0,4.0,63,0.00,,OVC031,-99.99,VWS V12.07,2013-03-11 23:08:00,
2013-03-11 17:08:00,50.1,38.4,30.23,East,82,2.0,3.0,64,0.00,,OVC100,-99.99,VWS V12.07,2013-03-12 00:08:00,
2013-03-11 18:08:00,49.4,39.3,30.22,South,175,0.0,3.0,68,0.00,,OVC100,-99.99,VWS V12.07,2013-03-12 01:08:00,
2013-03-11 19:08:00,48.0,40.1,30.20,SSE,160,0.0,1.0,74,0.00,,OVC080,-99.99,VWS V12.07,2013-03-12 02:08:00,
2013-03-11 20:08:00,45.7,41.5,30.18,East,88,1.0,2.0,85,0.01, -RA,-RA,-99.99,VWS V12.07,2013-03-12 03:08:00,
2013-03-11 21:08:00,44.8,42.0,30.15,NE,47,2.0,5.0,90,0.00, -RA,-RA,-99.99,VWS V12.07,2013-03-12 04:08:00,
2013-03-11 22:08:00,45.2,41.3,30.12,ENE,75,5.0,10.0,86,0.00,,OVC037,-99.99,VWS V12.07,2013-03-12 05:08:00,
2013-03-11 23:08:00,45.7,40.2,30.11,NE,41,4.0,8.0,81,0.00,,OVC027,-99.99,VWS V12.07,2013-03-12 06:08:00,